Location: Kergonan
(48.2337°N, 4.5518°W)
Time: 17:39:51
(UTC+00:00)

Cosmos 1295 Rocket - Pass Details

Date: 18 January 2020
Orbit: 943 x 995 km, 82.9° (Epoch: 18 February)

Event Time Altitude Azimuth Distance (km) Brightness Sun altitude
Rises 05:51:17 0° 350° (N) 3,692 7.4 -21.3°
Reaches altitude 10° 05:53:50 10° 350° (N) 2,733 6.7 -20.9°
Maximum altitude 06:00:05 84° 264° (W) 977 4.4 -19.9°
Drops below altitude 10° 06:06:14 10° 176° (S) 2,678 7.0 -18.9°
Sets 06:08:42 0° 176° (S) 3,614 7.7 -18.4°
